CZ-6A DEB, 54610

Orbit data source: Space-Track

CZ-6A DEB, 54610 is space debris in SSO originally from a launch on Fri, 11 Nov 2022 UTC launched from the Taiyaun Space Center, China (TSC). Debris objects in space refer to the collection of defunct objects orbiting the Earth. Examples of debris include non-operational satellites, rocket bodies, and fragments generated from explosions, collisions, or faulty payload assembly.

Loading next visibility...
Identifier
54610, 2022-151NL
Orbit
SSO
Country
Flag of CNCN / PRC
Related business
Manufacturer
SAST
Mission
Spacecraft
Bus & Motor
Unknown
Mass
Unknown
Launch date (UTC)
2022-11-11 (3 years ago)
Launch vehicle
Unknown
Launch site
Taiyaun Space Center, China (TSC)
Object type
Payload
Rocket body
Debris
Shape & HBR
Unknown shape, 1.1 m
Radar Cross Section
Small (<0.1 m²)

Expand to show TLE details & history
Last TLE update: 9 hours ago

TLE from 9 hours ago
0 CZ-6A DEB
1 54610U 22151NL  25355.57582762  .00007659  00000-0  15969-2 0  9998
2 54610  98.6466  37.8302 0074460 154.9529 205.5311 14.58496770 91217
Epoch: 2025-12-21T13:49Z
TLE epoch observation values (Epoch: 2025-12-21T13:49:11.506Z)
Latitude
-0.00002°
Longitude
100.14596°
Altitude
748.627 km
Speed
7.455 km/s
True Right ascension
02h 31m 19s
True Declination
0° 00' 00"
Sunlit
Object was in full shadow at epoch
Visualization orbit readout
Latitude
Unknown
Longitude
Unknown
Altitude
Unknown
Speed
Unknown
Apparent Right ascension
Unknown
Apparent Declination
Unknown
Sunlit
N/A
Visualization observer readout
Local Sidereal Time
21:34:20
Azimuth
Unknown
Elevation
Unknown
Doppler factor
Unknown
Orbital elements
Apogee altitude
747.804 km
Perigee altitude
642.468 km
Semi-major axis
7,073.273 km
Eccentricity
0.00745
Inclination
98.6466°
RAAN
37.8302°
Arg. of periapsis
154.9529°
True anomaly
205.16642°
Mean anomaly
205.5311°
Eccentric anomaly
205.34845°
Mean motion
3.64848 °/min
Orbital period
98.67 mins
BSTAR
0.0015969
Loading maneuver chart data...
Computing Atmospheric mass density...
Loading historical data...
Loading historical data...
Loading historical data...
Loading historical data...
Loading historical data...
Loading historical data...
Loading historical data...

Documentation

Showing up to 5 results
|